INTELSAT 18 (IS-18)

Last updated on Sat Aug 15 2026 00:02:58 GMT+0000 (Coordinated Universal Time)

1 37834U 11056A 26226.53234925 .00000038 00000+0 00000+0 0 9998 2 37834 0.0357 283.5238 0002119 242.0843 168.9784 1.00272497 54395
UTC large
Height (km)
Speed (km/s)
/
Latitude / Longitude
Inclination (degrees)
Orbital Period (minutes)
Azimuth
Elevation
Range (km)
Doppler Factor

Next 0 passes for location: London (51.5072 / 0.1276)

No passes found over London.
INTELSAT 18 (IS-18)